Flight Information

DEPARTURE
INDIAN SPRINGS, NV
Elevation:
3134
Runways:
8/26 - 9002x150 - ASPH
13/31 - 5476x100 - ASPH
Ground:
118.3
Tower:
118.3
DESTINATION
,
Elevation:
TPA:
1000 (est.)


6621.4 NM74° True-15° Var59° HDG

Flight Plan:
(click to file on line)

1. Type
2. Aircraft Identification
3. Aircraft Type / Special Equipment
4. True Airspeed
kts
5. Departure Airport
(ICAO code)
6. Arriving Airport
(ICAO code)
7. Cruising Altitude
ft
8. Alternate Airport
(ICAO code)
9. Route of Flight
10. Remarks


00:00:00 Departure ATIS: Destination ATIS:

Clearance Limit:
Route:
Altitude: Expect in minutes
Frequency:
Transponder: (7500 Hijack / 7600 Lost Comms / 7700 Emergency)


KINS 252003Z AUTO 11010KT 10SM SCT010 SCT021 BKN028 BKN035 04/02 A2946 RMK AO2 BKN028 V SCT SLP972 $
Time: 2021-01-25T20:03:00Z
1611605490
Winds: 110 @ 10 kts
Visibility: 10.0 sm
Clouds (AGL): SCT 1000
SCT 2100
BKN 2800
BKN 3500
Temperature: 4.0 C
Dew Point: 2.0 C
Pressure: 29.459646 in Hgbr


Notes:

Data extracted from FAA Digital Chart Supplement. Effective: 0901Z Thursday, Dec 31, 2020 to 0901Z Thursday, Jan 28, 2021
Current ATIS data is provided courtisy of PilotEdge.